{"data":{"norad_id":59779,"intl_designator":"2024-092G","name":"2024-092G","alt_names":[],"object_type":"PAYLOAD","status":"ACTIVE","operator":null,"country":"CIS","launch_date":"2024-05-16","launch_site_code":"PLMSC","launch_vehicle":null,"mission":null,"orbit_class":"UNKNOWN","rcs_meters":null,"size_class":null,"mass_kg":null,"dimensions":null,"purposes":[],"wikipedia_slug":null,"has_3d_model":false,"image_url":null,"decayed_at":null,"tle_current":{"epoch":"2026-09-22T21:58:48.055008Z","epoch_age_seconds":63938,"freshness":"FRESH","line1":"1 59779U 24092G   26265.91583397  .00000055  00000+0  37462-4 0  9995","line2":"2 59779  98.6806  24.9050 0010803 282.0225  77.9748 14.31873217122889","mean_motion":14.31873217,"eccentricity":0.0010803,"inclination_deg":98.6806,"raan_deg":24.905,"arg_perigee_deg":282.0225,"mean_anomaly_deg":77.9748,"bstar":3.7462e-5,"rev_number":12288,"period_min":100.56756302887,"perigee_km":777.73739466924,"apogee_km":793.21509744868,"semimajor_km":7163.613246059,"source":"CELESTRAK","updated_at":"2026-09-23T09:00:19.580979Z"}}}